NOAA 16 DEB

Satellite information

Favourite Embed

Satellite Type and Status

DEBRISIN ORBIT

Key statistics

Satellite NOAA 16 DEB at a glance.

Uptime

9214

Days in orbit

Revolutions

≈ 14.2

Per day

Orbit

SSO

Sun Synchronous Orbit

Inclination

98.5

Latest

Satellite identification and parameters

Extended collection of information and parameters for NOAA 16 DEB.

Object identification

Identified? True

Debris? True

Object name: NOAA 16 DEB

International designator: 2000-055EV

Object number (NORAD): 41245

Object ID (CCSDS): 41245

Country: UNITED STATES OF AMERICA (US)

Current information (Y/N): Y

RCS size: SMALL

Orbital parameters

Period: 101.456 minutes

Inclination: 98.5352 deg

SMA: 7205.745 km

Apoapsis: 837.951 km

Periapsis: 817.268 km

RAAN: 9.7909 deg

Eccentricy: 0.0014352

Argument of periapsis: 269.3521 deg

Mean anomaly: 90.6012 deg

Mean motion: 14.19333491 rev/day

Mean motion (dot): 0.0000326 rev/day2

B* drag term: 0.0015706 1/REarth

Two-line elements (TLE)

Creation date: Dec. 12, 2025, 7:16 a.m.

Reference frame: TEME

Reference center: EARTH

Epoch: Dec. 12, 2025, 12:27 a.m. UTC

TLE line 0: 0 NOAA 16 DEB

TLE line 1: 1 41245U 00055EV 25346.01942381 .00003260 00000-0 15706-2 0 9996

TLE line 2: 2 41245 98.5352 9.7909 0014352 269.3521 90.6012 14.19333491512056

Live tracking on map

Real-time ground track for satellite NOAA 16 DEB.

In-orbit conjunctions

A list of the most updated potential collisions computed for object NOAA 16 DEB.

Target Orbit TCA Probability of collision Miss distance Type
DMSP 5D-2 F8 (USA 26) SSO 2025-10-17 07:57:02 0.0001180379 623.0 (m) PAYLOAD
CZ-6A R/B LEO 2025-09-10 04:18:22 0.0001028118 575.0 (m) ROCKET BODY
NOAA 16 DEB SSO 2024-11-14 20:31:20 0.0001458844 436.0 (m) DEBRIS
SL-14 DEB * LEO 2024-09-07 05:27:31 0.0002228319 37.0 (m) DEBRIS

Associated space launch

The NOAA K, L and M POES satellites begin the fifth generation of improved environmental monitoring in support of NOAA missions. The instrument payload has significant improvements and additions/deletions. The instrument changes have effected the spacecraft subsystems and data formats.

NOAA 16 DEB was lifted into orbit during the mission ‘Titan II SLV | NOAA 16’, on board a Titan II SLV space rocket.

The launch took place on Sept. 21, 2000, 10:22 a.m. from Space Launch Complex 4W.

For more information about the launch, click the button.

Launch to space Titan II SLV | NOAA 16
Titan II SLV | NOAA 16

Agency: N/A

Status: Launch Successful

Launch date: Sept. 21, 2000, 10:22 a.m. UTC

Rocket: Titan II SLV

Launch pad: Space Launch Complex 4W

Location: Vandenberg SFB, CA, USA

...

Latest news about this satellite

There are no fresh news available about this satellite. Check back as we update our databases every day.


Newsletter sign-up

Weekly statistics, charts and insights to help you stay on top of the space industry.